{"data":{"norad_id":57978,"epoch":"2026-05-24T19:21:16.493760Z","epoch_age_seconds":98623,"freshness":"FRESH","line1":"1 57978U 23151Q   26144.80644090  .00004900  00000+0  18732-3 0  9992","line2":"2 57978  43.0048 280.8881 0001806 268.5048  91.5597 15.27608023147237","mean_motion":15.27608023,"eccentricity":0.0001806,"inclination_deg":43.0048,"raan_deg":280.8881,"arg_perigee_deg":268.5048,"mean_anomaly_deg":91.5597,"bstar":0.00018732,"rev_number":14723,"period_min":94.265019449953,"perigee_km":481.72607132432,"apogee_km":484.20430143404,"semimajor_km":6861.1021863792,"source":"CELESTRAK","updated_at":"2026-05-25T13:38:18.487791Z"}}